Time,TemperatureF,DewpointF,PressureIn,WindDirection,WindDirectionDegrees,WindSpeedMPH,WindSpeedGustMPH,Humidity,HourlyPrecipIn,Conditions,Clouds,dailyrainin,SolarRadiationWatts/m^2,SoftwareType,DateUTC
2013-06-21 00:09:00,79.6,73.3,29.92,North,-999,0.0,0.0,81,0.00,,,-99.99,0,WeatherLink 5.4,2013-06-21 04:09:00,
2013-06-21 00:10:00,79.6,73.3,29.92,North,-999,0.0,0.0,81,0.00,,,-99.99,0,WeatherLink 5.4,2013-06-21 04:10:00,
2013-06-21 00:13:00,79.6,73.3,29.92,North,-999,0.0,0.0,81,0.00,,,-99.99,0,WeatherLink 5.4,2013-06-21 04:13:00,
2013-06-21 00:14:00,79.6,73.3,29.92,North,-999,0.0,0.0,81,0.00,,,-99.99,0,WeatherLink 5.4,2013-06-21 04:14:00,
2013-06-21 00:19:00,79.6,73.3,29.92,North,-999,0.0,0.0,81,0.00,,,-99.99,0,WeatherLink 5.4,2013-06-21 04:19:00,
2013-06-21 00:24:00,79.5,73.2,29.92,North,-999,0.0,0.0,81,0.00,,,-99.99,0,WeatherLink 5.4,2013-06-21 04:24:00,
2013-06-21 00:29:00,79.3,73.0,29.92,North,-999,0.0,0.0,81,0.00,,,-99.99,0,WeatherLink 5.4,2013-06-21 04:29:00,
2013-06-21 00:35:00,79.3,73.0,29.92,North,-999,0.0,0.0,81,0.00,,,-99.99,0,WeatherLink 5.4,2013-06-21 04:35:00,
2013-06-21 00:40:00,79.1,73.1,29.92,North,-999,0.0,0.0,82,0.00,,,-99.99,0,WeatherLink 5.4,2013-06-21 04:40:00,
2013-06-21 00:45:00,79.1,73.1,29.92,North,-999,0.0,0.0,82,0.00,,,-99.99,0,WeatherLink 5.4,2013-06-21 04:45:00,
2013-06-21 00:51:00,78.9,72.9,29.92,North,-999,0.0,0.0,82,0.00,,,-99.99,0,WeatherLink 5.4,2013-06-21 04:51:00,
2013-06-21 00:56:00,78.9,72.9,29.92,North,-999,0.0,0.0,82,0.00,,,-99.99,0,WeatherLink 5.4,2013-06-21 04:56:00,
2013-06-21 01:01:00,78.6,72.6,29.91,ESE,112,0.0,1.0,82,0.00,,,-99.99,0,WeatherLink 5.4,2013-06-21 05:01:00,
2013-06-21 01:07:00,78.6,72.6,29.91,ESE,112,0.0,1.0,82,0.00,,,-99.99,0,WeatherLink 5.4,2013-06-21 05:07:00,
2013-06-21 01:12:00,78.6,72.6,29.91,North,-999,0.0,0.0,82,0.00,,,-99.99,0,WeatherLink 5.4,2013-06-21 05:12:00,
2013-06-21 01:17:00,78.6,72.6,29.91,North,-999,0.0,0.0,82,0.00,,,-99.99,0,WeatherLink 5.4,2013-06-21 05:17:00,
2013-06-21 01:23:00,78.7,72.7,29.91,North,-999,0.0,0.0,82,0.00,,,-99.99,0,WeatherLink 5.4,2013-06-21 05:23:00,
2013-06-21 01:29:00,78.7,72.7,29.91,North,-999,0.0,0.0,82,0.00,,,-99.99,0,WeatherLink 5.4,2013-06-21 05:29:00,
2013-06-21 01:30:00,78.8,72.5,29.91,North,-999,0.0,0.0,81,0.00,,,-99.99,0,WeatherLink 5.4,2013-06-21 05:30:00,
2013-06-21 01:35:00,78.8,72.5,29.91,North,-999,0.0,0.0,81,0.00,,,-99.99,0,WeatherLink 5.4,2013-06-21 05:35:00,
2013-06-21 01:40:00,78.8,72.5,29.91,North,-999,0.0,0.0,81,0.00,,,-99.99,0,WeatherLink 5.4,2013-06-21 05:40:00,
2013-06-21 01:45:00,78.8,72.5,29.91,North,-999,0.0,0.0,81,0.00,,,-99.99,0,WeatherLink 5.4,2013-06-21 05:45:00,
2013-06-21 01:50:00,78.8,72.8,29.91,North,-999,0.0,0.0,82,0.00,,,-99.99,0,WeatherLink 5.4,2013-06-21 05:50:00,
2013-06-21 01:56:00,78.8,72.8,29.91,North,-999,0.0,0.0,82,0.00,,,-99.99,0,WeatherLink 5.4,2013-06-21 05:56:00,
2013-06-21 02:01:00,78.6,73.0,29.91,North,-999,0.0,0.0,83,0.00,,,-99.99,0,WeatherLink 5.4,2013-06-21 06:01:00,
2013-06-21 02:07:00,78.6,73.0,29.91,North,-999,0.0,0.0,83,0.00,,,-99.99,0,WeatherLink 5.4,2013-06-21 06:07:00,
2013-06-21 02:12:00,78.5,73.3,29.91,North,-999,0.0,0.0,84,0.00,,,-99.99,0,WeatherLink 5.4,2013-06-21 06:12:00,
2013-06-21 02:17:00,78.5,73.3,29.91,North,-999,0.0,0.0,84,0.00,,,-99.99,0,WeatherLink 5.4,2013-06-21 06:17:00,
2013-06-21 02:23:00,78.1,72.9,29.90,North,-999,0.0,0.0,84,0.00,,,-99.99,0,WeatherLink 5.4,2013-06-21 06:23:00,
2013-06-21 02:29:00,78.1,72.9,29.90,North,-999,0.0,0.0,84,0.00,,,-99.99,0,WeatherLink 5.4,2013-06-21 06:29:00,
2013-06-21 02:35:00,77.8,72.6,29.90,North,-999,0.0,0.0,84,0.00,,,-99.99,0,WeatherLink 5.4,2013-06-21 06:35:00,
2013-06-21 02:40:00,77.6,73.1,29.90,North,-999,0.0,0.0,86,0.00,,,-99.99,0,WeatherLink 5.4,2013-06-21 06:40:00,
2013-06-21 02:45:00,77.6,73.1,29.90,North,-999,0.0,0.0,86,0.00,,,-99.99,0,WeatherLink 5.4,2013-06-21 06:45:00,
2013-06-21 02:51:00,77.3,73.1,29.90,North,-999,0.0,0.0,87,0.00,,,-99.99,0,WeatherLink 5.4,2013-06-21 06:51:00,
2013-06-21 02:56:00,77.3,73.1,29.90,North,-999,0.0,0.0,87,0.00,,,-99.99,0,WeatherLink 5.4,2013-06-21 06:56:00,
2013-06-21 03:02:00,77.0,72.8,29.90,North,-999,0.0,0.0,87,0.00,,,-99.99,0,WeatherLink 5.4,2013-06-21 07:02:00,
2013-06-21 03:08:00,77.0,72.8,29.90,North,-999,0.0,0.0,87,0.00,,,-99.99,0,WeatherLink 5.4,2013-06-21 07:08:00,
2013-06-21 03:13:00,76.8,72.6,29.90,North,-999,0.0,0.0,87,0.00,,,-99.99,0,WeatherLink 5.4,2013-06-21 07:13:00,
2013-06-21 03:18:00,76.8,72.6,29.90,North,-999,0.0,0.0,87,0.00,,,-99.99,0,WeatherLink 5.4,2013-06-21 07:18:00,
2013-06-21 03:24:00,76.6,72.8,29.90,North,-999,0.0,0.0,88,0.00,,,-99.99,0,WeatherLink 5.4,2013-06-21 07:24:00,
2013-06-21 03:30:00,76.4,72.6,29.89,North,-999,0.0,0.0,88,0.00,,,-99.99,0,WeatherLink 5.4,2013-06-21 07:30:00,
2013-06-21 03:36:00,76.4,72.6,29.89,North,-999,0.0,0.0,88,0.00,,,-99.99,0,WeatherLink 5.4,2013-06-21 07:36:00,
2013-06-21 03:42:00,76.2,72.4,29.89,North,-999,0.0,0.0,88,0.00,,,-99.99,0,WeatherLink 5.4,2013-06-21 07:42:00,
2013-06-21 03:47:00,76.2,72.4,29.89,North,-999,0.0,0.0,88,0.00,,,-99.99,0,WeatherLink 5.4,2013-06-21 07:47:00,
2013-06-21 03:53:00,76.1,72.3,29.89,North,-999,0.0,0.0,88,0.00,,,-99.99,0,WeatherLink 5.4,2013-06-21 07:53:00,
2013-06-21 03:58:00,76.1,72.3,29.89,North,-999,0.0,0.0,88,0.00,,,-99.99,0,WeatherLink 5.4,2013-06-21 07:58:00,
2013-06-21 04:04:00,76.0,72.2,29.89,North,-999,0.0,0.0,88,0.00,,,-99.99,0,WeatherLink 5.4,2013-06-21 08:04:00,
2013-06-21 04:09:00,76.0,72.2,29.89,North,-999,0.0,0.0,88,0.00,,,-99.99,0,WeatherLink 5.4,2013-06-21 08:09:00,
2013-06-21 04:15:00,75.8,72.3,29.89,North,-999,0.0,0.0,89,0.00,,,-99.99,0,WeatherLink 5.4,2013-06-21 08:15:00,
2013-06-21 04:20:00,75.7,72.2,29.90,North,-999,0.0,0.0,89,0.00,,,-99.99,0,WeatherLink 5.4,2013-06-21 08:20:00,
2013-06-21 04:26:00,75.7,72.2,29.90,North,-999,0.0,0.0,89,0.00,,,-99.99,0,WeatherLink 5.4,2013-06-21 08:26:00,
2013-06-21 04:31:00,75.7,72.2,29.90,North,-999,0.0,0.0,89,0.00,,,-99.99,0,WeatherLink 5.4,2013-06-21 08:31:00,
2013-06-21 04:37:00,75.7,72.2,29.90,North,-999,0.0,0.0,89,0.00,,,-99.99,0,WeatherLink 5.4,2013-06-21 08:37:00,
2013-06-21 04:43:00,75.6,72.1,29.90,North,-999,0.0,0.0,89,0.00,,,-99.99,0,WeatherLink 5.4,2013-06-21 08:43:00,
2013-06-21 04:48:00,75.6,72.1,29.90,North,-999,0.0,0.0,89,0.00,,,-99.99,0,WeatherLink 5.4,2013-06-21 08:48:00,
2013-06-21 04:53:00,75.4,72.3,29.90,North,-999,0.0,0.0,90,0.00,,,-99.99,0,WeatherLink 5.4,2013-06-21 08:53:00,
2013-06-21 04:59:00,75.4,72.3,29.90,North,-999,0.0,0.0,90,0.00,,,-99.99,0,WeatherLink 5.4,2013-06-21 08:59:00,
2013-06-21 05:05:00,75.3,72.2,29.90,North,-999,0.0,0.0,90,0.00,,,-99.99,0,WeatherLink 5.4,2013-06-21 09:05:00,
2013-06-21 05:11:00,75.2,72.1,29.90,North,-999,0.0,0.0,90,0.00,,,-99.99,0,WeatherLink 5.4,2013-06-21 09:11:00,
2013-06-21 05:16:00,75.2,72.1,29.90,North,-999,0.0,0.0,90,0.00,,,-99.99,0,WeatherLink 5.4,2013-06-21 09:16:00,
2013-06-21 05:21:00,75.1,72.3,29.90,North,-999,0.0,0.0,91,0.00,,,-99.99,0,WeatherLink 5.4,2013-06-21 09:21:00,
2013-06-21 05:27:00,75.1,72.3,29.90,North,-999,0.0,0.0,91,0.00,,,-99.99,0,WeatherLink 5.4,2013-06-21 09:27:00,
2013-06-21 05:30:00,75.1,72.3,29.91,North,-999,0.0,0.0,91,0.00,,,-99.99,0,WeatherLink 5.4,2013-06-21 09:30:00,
2013-06-21 05:32:00,75.1,72.3,29.91,North,-999,0.0,0.0,91,0.00,,,-99.99,0,WeatherLink 5.4,2013-06-21 09:32:00,
2013-06-21 05:38:00,75.1,72.3,29.91,North,-999,0.0,0.0,91,0.00,,,-99.99,0,WeatherLink 5.4,2013-06-21 09:38:00,
2013-06-21 05:44:00,75.1,72.3,29.91,North,-999,0.0,0.0,91,0.00,,,-99.99,0,WeatherLink 5.4,2013-06-21 09:44:00,
2013-06-21 05:49:00,75.1,72.3,29.91,North,-999,0.0,0.0,91,0.00,,,-99.99,0,WeatherLink 5.4,2013-06-21 09:49:00,
2013-06-21 05:55:00,75.0,72.2,29.91,North,-999,0.0,0.0,91,0.00,,,-99.99,0,WeatherLink 5.4,2013-06-21 09:55:00,
2013-06-21 06:00:00,74.9,72.1,29.91,North,-999,0.0,0.0,91,0.00,,,-99.99,7,WeatherLink 5.4,2013-06-21 10:00:00,
2013-06-21 06:05:00,74.9,72.1,29.91,North,-999,0.0,0.0,91,0.00,,,-99.99,7,WeatherLink 5.4,2013-06-21 10:05:00,
2013-06-21 06:11:00,74.7,71.9,29.91,North,-999,0.0,0.0,91,0.00,,,-99.99,12,WeatherLink 5.4,2013-06-21 10:11:00,
2013-06-21 06:16:00,74.7,71.9,29.91,North,-999,0.0,0.0,91,0.00,,,-99.99,12,WeatherLink 5.4,2013-06-21 10:16:00,
2013-06-21 06:22:00,74.7,71.9,29.92,North,-999,0.0,0.0,91,0.01,,,-99.99,13,WeatherLink 5.4,2013-06-21 10:22:00,
2013-06-21 06:27:00,74.7,71.9,29.92,North,-999,0.0,0.0,91,0.01,,,-99.99,13,WeatherLink 5.4,2013-06-21 10:27:00,
2013-06-21 06:32:00,74.7,72.2,29.93,North,-999,0.0,0.0,92,0.02,,,-99.99,28,WeatherLink 5.4,2013-06-21 10:32:00,
2013-06-21 06:37:00,74.7,72.2,29.93,North,-999,0.0,0.0,92,0.02,,,-99.99,28,WeatherLink 5.4,2013-06-21 10:37:00,
2013-06-21 06:43:00,74.9,72.4,29.93,North,-999,0.0,0.0,92,0.02,,,-99.99,34,WeatherLink 5.4,2013-06-21 10:43:00,
2013-06-21 06:48:00,74.9,72.4,29.93,North,-999,0.0,0.0,92,0.02,,,-99.99,34,WeatherLink 5.4,2013-06-21 10:48:00,
2013-06-21 06:53:00,75.1,72.6,29.93,North,-999,0.0,0.0,92,0.02,,,-99.99,44,WeatherLink 5.4,2013-06-21 10:53:00,
2013-06-21 06:59:00,75.1,72.6,29.93,North,-999,0.0,0.0,92,0.02,,,-99.99,44,WeatherLink 5.4,2013-06-21 10:59:00,
2013-06-21 07:05:00,75.3,72.8,29.93,North,-999,0.0,0.0,92,0.02,,,-99.99,146,WeatherLink 5.4,2013-06-21 11:05:00,
2013-06-21 07:11:00,75.6,73.1,29.93,North,-999,0.0,0.0,92,0.02,,,-99.99,170,WeatherLink 5.4,2013-06-21 11:11:00,
2013-06-21 07:16:00,75.6,73.1,29.93,North,-999,0.0,0.0,92,0.02,,,-99.99,170,WeatherLink 5.4,2013-06-21 11:16:00,
2013-06-21 07:21:00,75.9,73.4,29.93,North,-999,0.0,0.0,92,0.01,,,-99.99,144,WeatherLink 5.4,2013-06-21 11:21:00,
2013-06-21 07:27:00,75.9,73.4,29.93,North,-999,0.0,0.0,92,0.01,,,-99.99,144,WeatherLink 5.4,2013-06-21 11:27:00,
2013-06-21 07:32:00,75.9,73.1,29.93,North,-999,0.0,0.0,91,0.00,,,-99.99,186,WeatherLink 5.4,2013-06-21 11:32:00,
2013-06-21 07:38:00,75.9,73.1,29.93,North,-999,0.0,0.0,91,0.00,,,-99.99,186,WeatherLink 5.4,2013-06-21 11:38:00,
2013-06-21 07:44:00,76.3,73.1,29.93,North,-999,0.0,0.0,90,0.00,,,-99.99,268,WeatherLink 5.4,2013-06-21 11:44:00,
2013-06-21 07:50:00,77.0,72.8,29.93,North,-999,0.0,0.0,87,0.00,,,-99.99,308,WeatherLink 5.4,2013-06-21 11:50:00,
2013-06-21 07:56:00,77.0,72.8,29.93,North,-999,0.0,0.0,87,0.00,,,-99.99,308,WeatherLink 5.4,2013-06-21 11:56:00,
2013-06-21 08:02:00,77.7,72.8,29.93,North,-999,0.0,0.0,85,0.00,,,-99.99,351,WeatherLink 5.4,2013-06-21 12:02:00,
2013-06-21 08:08:00,77.7,72.8,29.93,North,-999,0.0,0.0,85,0.00,,,-99.99,351,WeatherLink 5.4,2013-06-21 12:08:00,
2013-06-21 08:10:00,78.6,72.6,29.93,ESE,112,1.0,6.0,82,0.00,,,-99.99,407,WeatherLink 5.4,2013-06-21 12:10:00,
2013-06-21 08:14:00,78.6,72.6,29.93,ESE,112,1.0,6.0,82,0.00,,,-99.99,407,WeatherLink 5.4,2013-06-21 12:14:00,
2013-06-21 08:20:00,79.7,72.6,29.93,East,90,1.0,11.0,79,0.00,,,-99.99,489,WeatherLink 5.4,2013-06-21 12:20:00,
2013-06-21 08:26:00,79.7,72.6,29.93,East,90,1.0,11.0,79,0.00,,,-99.99,489,WeatherLink 5.4,2013-06-21 12:26:00,
2013-06-21 08:31:00,80.4,71.7,29.94,East,90,1.0,6.0,75,0.00,,,-99.99,514,WeatherLink 5.4,2013-06-21 12:31:00,
2013-06-21 08:37:00,80.4,71.7,29.94,East,90,1.0,6.0,75,0.00,,,-99.99,514,WeatherLink 5.4,2013-06-21 12:37:00,
2013-06-21 08:42:00,81.0,72.3,29.94,ENE,67,0.0,1.0,75,0.00,,,-99.99,218,WeatherLink 5.4,2013-06-21 12:42:00,
2013-06-21 08:48:00,81.0,72.3,29.94,ENE,67,0.0,1.0,75,0.00,,,-99.99,218,WeatherLink 5.4,2013-06-21 12:48:00,
2013-06-21 08:54:00,81.2,72.1,29.94,East,90,2.0,8.0,74,0.00,,,-99.99,513,WeatherLink 5.4,2013-06-21 12:54:00,
2013-06-21 09:00:00,81.4,71.9,29.94,ESE,112,0.0,5.0,73,0.00,,,-99.99,255,WeatherLink 5.4,2013-06-21 13:00:00,
2013-06-21 09:06:00,81.4,71.9,29.94,ESE,112,0.0,5.0,73,0.00,,,-99.99,255,WeatherLink 5.4,2013-06-21 13:06:00,
2013-06-21 09:10:00,81.7,71.0,29.94,East,90,2.0,7.0,70,0.00,,,-99.99,278,WeatherLink 5.4,2013-06-21 13:10:00,
2013-06-21 09:12:00,81.7,71.0,29.94,East,90,2.0,7.0,70,0.00,,,-99.99,278,WeatherLink 5.4,2013-06-21 13:12:00,
2013-06-21 09:17:00,81.7,71.0,29.94,East,90,2.0,7.0,70,0.00,,,-99.99,278,WeatherLink 5.4,2013-06-21 13:17:00,
2013-06-21 09:20:00,82.2,70.1,29.94,East,90,2.0,13.0,67,0.00,,,-99.99,698,WeatherLink 5.4,2013-06-21 13:20:00,
2013-06-21 09:23:00,82.2,70.1,29.94,East,90,2.0,13.0,67,0.00,,,-99.99,698,WeatherLink 5.4,2013-06-21 13:23:00,
2013-06-21 09:28:00,82.2,70.1,29.94,East,90,2.0,13.0,67,0.00,,,-99.99,698,WeatherLink 5.4,2013-06-21 13:28:00,
2013-06-21 09:34:00,82.7,70.6,29.94,East,90,2.0,10.0,67,0.00,,,-99.99,676,WeatherLink 5.4,2013-06-21 13:34:00,
2013-06-21 09:39:00,82.7,70.6,29.94,East,90,2.0,10.0,67,0.00,,,-99.99,676,WeatherLink 5.4,2013-06-21 13:39:00,
2013-06-21 09:45:00,83.2,71.1,29.94,East,90,0.0,4.0,67,0.00,,,-99.99,355,WeatherLink 5.4,2013-06-21 13:45:00,
2013-06-21 09:51:00,83.2,71.1,29.94,East,90,2.0,9.0,67,0.00,,,-99.99,781,WeatherLink 5.4,2013-06-21 13:51:00,
2013-06-21 09:56:00,83.2,71.1,29.94,East,90,2.0,9.0,67,0.00,,,-99.99,781,WeatherLink 5.4,2013-06-21 13:56:00,
2013-06-21 10:00:00,83.7,71.1,29.94,East,90,1.0,6.0,66,0.00,,,-99.99,852,WeatherLink 5.4,2013-06-21 14:00:00,
2013-06-21 10:02:00,83.7,71.1,29.94,East,90,1.0,6.0,66,0.00,,,-99.99,852,WeatherLink 5.4,2013-06-21 14:02:00,
2013-06-21 10:09:00,83.7,71.1,29.94,East,90,1.0,6.0,66,0.00,,,-99.99,852,WeatherLink 5.4,2013-06-21 14:09:00,
2013-06-21 10:14:00,84.1,71.1,29.94,East,90,2.0,11.0,65,0.00,,,-99.99,869,WeatherLink 5.4,2013-06-21 14:14:00,
2013-06-21 10:21:00,84.0,71.0,29.94,ENE,67,2.0,8.0,65,0.00,,,-99.99,372,WeatherLink 5.4,2013-06-21 14:21:00,
2013-06-21 10:26:00,84.0,71.0,29.94,ENE,67,2.0,8.0,65,0.00,,,-99.99,372,WeatherLink 5.4,2013-06-21 14:26:00,
2013-06-21 10:32:00,83.6,70.6,29.94,East,90,1.0,8.0,65,0.00,,,-99.99,595,WeatherLink 5.4,2013-06-21 14:32:00,
2013-06-21 10:37:00,83.6,70.6,29.94,East,90,1.0,8.0,65,0.00,,,-99.99,595,WeatherLink 5.4,2013-06-21 14:37:00,
2013-06-21 10:43:00,83.8,70.8,29.94,ENE,67,2.0,11.0,65,0.00,,,-99.99,490,WeatherLink 5.4,2013-06-21 14:43:00,
2013-06-21 10:48:00,83.8,70.8,29.94,ENE,67,2.0,11.0,65,0.00,,,-99.99,490,WeatherLink 5.4,2013-06-21 14:48:00,
2013-06-21 10:53:00,84.0,69.6,29.93,ENE,67,1.0,8.0,62,0.00,,,-99.99,962,WeatherLink 5.4,2013-06-21 14:53:00,
2013-06-21 10:59:00,84.0,69.6,29.93,ENE,67,1.0,8.0,62,0.00,,,-99.99,962,WeatherLink 5.4,2013-06-21 14:59:00,
2013-06-21 11:00:00,84.4,70.9,29.93,ENE,67,2.0,11.0,64,0.00,,,-99.99,367,WeatherLink 5.4,2013-06-21 15:00:00,
2013-06-21 11:05:00,84.4,70.9,29.93,ENE,67,2.0,11.0,64,0.00,,,-99.99,367,WeatherLink 5.4,2013-06-21 15:05:00,
2013-06-21 11:11:00,84.3,70.8,29.93,ENE,67,4.0,13.0,64,0.00,,,-99.99,340,WeatherLink 5.4,2013-06-21 15:11:00,
2013-06-21 11:17:00,84.3,70.8,29.93,ENE,67,4.0,13.0,64,0.00,,,-99.99,340,WeatherLink 5.4,2013-06-21 15:17:00,
2013-06-21 11:22:00,84.3,69.9,29.93,East,90,4.0,14.0,62,0.00,,,-99.99,984,WeatherLink 5.4,2013-06-21 15:22:00,
2013-06-21 11:28:00,84.3,69.9,29.93,East,90,4.0,14.0,62,0.00,,,-99.99,984,WeatherLink 5.4,2013-06-21 15:28:00,
2013-06-21 11:34:00,84.8,71.3,29.93,East,90,4.0,14.0,64,0.00,,,-99.99,994,WeatherLink 5.4,2013-06-21 15:34:00,
2013-06-21 11:40:00,85.1,70.6,29.93,East,90,3.0,14.0,62,0.00,,,-99.99,996,WeatherLink 5.4,2013-06-21 15:40:00,
2013-06-21 11:46:00,85.1,70.6,29.93,East,90,3.0,14.0,62,0.00,,,-99.99,996,WeatherLink 5.4,2013-06-21 15:46:00,
2013-06-21 11:52:00,85.3,69.8,29.92,East,90,5.0,12.0,60,0.00,,,-99.99,966,WeatherLink 5.4,2013-06-21 15:52:00,
2013-06-21 11:58:00,85.3,69.8,29.92,East,90,5.0,12.0,60,0.00,,,-99.99,966,WeatherLink 5.4,2013-06-21 15:58:00,
2013-06-21 12:00:00,85.5,69.5,29.92,East,90,5.0,10.0,59,0.00,,,-99.99,964,WeatherLink 5.4,2013-06-21 16:00:00,
2013-06-21 12:03:00,85.5,69.5,29.92,East,90,5.0,10.0,59,0.00,,,-99.99,964,WeatherLink 5.4,2013-06-21 16:03:00,
2013-06-21 12:10:00,85.7,69.7,29.92,East,90,2.0,10.0,59,0.00,,,-99.99,1021,WeatherLink 5.4,2013-06-21 16:10:00,
2013-06-21 12:15:00,85.7,69.7,29.92,East,90,2.0,10.0,59,0.00,,,-99.99,1021,WeatherLink 5.4,2013-06-21 16:15:00,
2013-06-21 12:20:00,86.0,71.0,29.92,East,90,3.0,16.0,61,0.00,,,-99.99,975,WeatherLink 5.4,2013-06-21 16:20:00,
2013-06-21 12:25:00,86.0,71.0,29.92,East,90,3.0,16.0,61,0.00,,,-99.99,975,WeatherLink 5.4,2013-06-21 16:25:00,
2013-06-21 12:31:00,86.0,71.9,29.92,East,90,2.0,8.0,63,0.00,,,-99.99,1020,WeatherLink 5.4,2013-06-21 16:31:00,
2013-06-21 12:36:00,86.0,71.9,29.92,East,90,2.0,8.0,63,0.00,,,-99.99,1020,WeatherLink 5.4,2013-06-21 16:36:00,
2013-06-21 12:42:00,85.8,72.2,29.92,East,90,1.0,11.0,64,0.00,,,-99.99,701,WeatherLink 5.4,2013-06-21 16:42:00,
2013-06-21 12:47:00,85.8,72.2,29.92,East,90,1.0,11.0,64,0.00,,,-99.99,701,WeatherLink 5.4,2013-06-21 16:47:00,
2013-06-21 12:53:00,85.7,71.7,29.92,ENE,67,2.0,14.0,63,0.00,,,-99.99,1043,WeatherLink 5.4,2013-06-21 16:53:00,
2013-06-21 12:58:00,85.7,71.7,29.92,ENE,67,2.0,14.0,63,0.00,,,-99.99,1043,WeatherLink 5.4,2013-06-21 16:58:00,
2013-06-21 13:06:00,86.0,71.9,29.91,East,90,3.0,10.0,63,0.00,,,-99.99,959,WeatherLink 5.4,2013-06-21 17:06:00,
2013-06-21 13:10:00,86.0,70.5,29.91,East,90,1.0,7.0,60,0.00,,,-99.99,959,WeatherLink 5.4,2013-06-21 17:10:00,
2013-06-21 13:12:00,86.0,70.5,29.91,East,90,1.0,7.0,60,0.00,,,-99.99,959,WeatherLink 5.4,2013-06-21 17:12:00,
2013-06-21 13:17:00,86.0,70.5,29.91,East,90,1.0,7.0,60,0.00,,,-99.99,959,WeatherLink 5.4,2013-06-21 17:17:00,
2013-06-21 13:23:00,86.0,71.0,29.91,ENE,67,4.0,17.0,61,0.00,,,-99.99,958,WeatherLink 5.4,2013-06-21 17:23:00,
2013-06-21 13:29:00,86.0,71.0,29.91,ENE,67,4.0,17.0,61,0.00,,,-99.99,958,WeatherLink 5.4,2013-06-21 17:29:00,
2013-06-21 13:30:00,85.7,71.2,29.91,East,90,4.0,14.0,62,0.00,,,-99.99,945,WeatherLink 5.4,2013-06-21 17:30:00,
2013-06-21 13:35:00,85.7,71.2,29.91,East,90,4.0,14.0,62,0.00,,,-99.99,945,WeatherLink 5.4,2013-06-21 17:35:00,
2013-06-21 13:42:00,85.7,70.7,29.91,ENE,67,2.0,18.0,61,0.00,,,-99.99,952,WeatherLink 5.4,2013-06-21 17:42:00,
2013-06-21 13:46:00,85.7,70.7,29.91,ENE,67,2.0,18.0,61,0.00,,,-99.99,952,WeatherLink 5.4,2013-06-21 17:46:00,
2013-06-21 13:47:00,85.7,70.7,29.91,ENE,67,2.0,18.0,61,0.00,,,-99.99,952,WeatherLink 5.4,2013-06-21 17:47:00,
2013-06-21 13:48:00,85.7,70.7,29.91,ENE,67,2.0,18.0,61,0.00,,,-99.99,952,WeatherLink 5.4,2013-06-21 17:48:00,
2013-06-21 13:52:00,85.6,70.6,29.91,East,90,3.0,8.0,61,0.00,,,-99.99,928,WeatherLink 5.4,2013-06-21 17:52:00,
2013-06-21 13:58:00,85.6,70.6,29.91,East,90,3.0,8.0,61,0.00,,,-99.99,928,WeatherLink 5.4,2013-06-21 17:58:00,
2013-06-21 14:00:00,85.6,70.1,29.90,East,90,4.0,16.0,60,0.00,,,-99.99,899,WeatherLink 5.4,2013-06-21 18:00:00,
2013-06-21 14:02:00,85.6,70.1,29.90,East,90,4.0,16.0,60,0.00,,,-99.99,899,WeatherLink 5.4,2013-06-21 18:02:00,
2013-06-21 14:08:00,85.6,70.1,29.90,East,90,4.0,16.0,60,0.00,,,-99.99,899,WeatherLink 5.4,2013-06-21 18:08:00,
2013-06-21 14:13:00,85.3,69.8,29.90,East,90,4.0,16.0,60,0.00,,,-99.99,875,WeatherLink 5.4,2013-06-21 18:13:00,
2013-06-21 14:18:00,85.3,69.8,29.90,East,90,4.0,16.0,60,0.00,,,-99.99,875,WeatherLink 5.4,2013-06-21 18:18:00,
2013-06-21 14:23:00,85.2,70.2,29.90,ENE,67,2.0,11.0,61,0.00,,,-99.99,873,WeatherLink 5.4,2013-06-21 18:23:00,
2013-06-21 14:24:00,85.2,70.2,29.90,ENE,67,2.0,11.0,61,0.00,,,-99.99,873,WeatherLink 5.4,2013-06-21 18:24:00,
2013-06-21 14:25:00,85.2,70.2,29.90,ENE,67,2.0,11.0,61,0.00,,,-99.99,873,WeatherLink 5.4,2013-06-21 18:25:00,
2013-06-21 14:26:00,85.2,70.2,29.90,ENE,67,2.0,11.0,61,0.00,,,-99.99,873,WeatherLink 5.4,2013-06-21 18:26:00,
2013-06-21 14:29:00,85.4,68.4,29.90,NE,45,2.0,9.0,57,0.00,,,-99.99,821,WeatherLink 5.4,2013-06-21 18:29:00,
2013-06-21 14:30:00,85.4,68.4,29.90,NE,45,2.0,9.0,57,0.00,,,-99.99,821,WeatherLink 5.4,2013-06-21 18:30:00,
2013-06-21 14:34:00,85.4,68.4,29.90,NE,45,2.0,9.0,57,0.00,,,-99.99,821,WeatherLink 5.4,2013-06-21 18:34:00,
2013-06-21 14:39:00,85.4,68.4,29.90,NE,45,2.0,9.0,57,0.00,,,-99.99,821,WeatherLink 5.4,2013-06-21 18:39:00,
2013-06-21 14:45:00,85.6,69.1,29.90,East,90,2.0,12.0,58,0.00,,,-99.99,812,WeatherLink 5.4,2013-06-21 18:45:00,
2013-06-21 14:46:00,85.6,69.1,29.90,East,90,2.0,12.0,58,0.00,,,-99.99,812,WeatherLink 5.4,2013-06-21 18:46:00,
2013-06-21 14:49:00,85.6,69.1,29.90,East,90,2.0,12.0,58,0.00,,,-99.99,812,WeatherLink 5.4,2013-06-21 18:49:00,
2013-06-21 14:54:00,85.4,70.4,29.89,ENE,67,4.0,16.0,61,0.00,,,-99.99,813,WeatherLink 5.4,2013-06-21 18:54:00,
2013-06-21 14:59:00,85.2,70.2,29.89,East,90,3.0,14.0,61,0.00,,,-99.99,786,WeatherLink 5.4,2013-06-21 18:59:00,
2013-06-21 15:04:00,85.2,70.2,29.89,East,90,3.0,14.0,61,0.00,,,-99.99,786,WeatherLink 5.4,2013-06-21 19:04:00,
2013-06-21 15:10:00,85.5,71.5,29.89,ENE,67,2.0,7.0,63,0.00,,,-99.99,799,WeatherLink 5.4,2013-06-21 19:10:00,
2013-06-21 15:15:00,85.5,71.5,29.89,ENE,67,2.0,7.0,63,0.00,,,-99.99,799,WeatherLink 5.4,2013-06-21 19:15:00,
2013-06-21 15:20:00,85.4,71.4,29.89,NE,45,1.0,12.0,63,0.00,,,-99.99,812,WeatherLink 5.4,2013-06-21 19:20:00,
2013-06-21 15:21:00,85.4,71.4,29.89,NE,45,1.0,12.0,63,0.00,,,-99.99,812,WeatherLink 5.4,2013-06-21 19:21:00,
2013-06-21 15:26:00,85.4,71.4,29.89,NE,45,1.0,12.0,63,0.00,,,-99.99,812,WeatherLink 5.4,2013-06-21 19:26:00,
2013-06-21 15:32:00,85.2,72.1,29.89,East,90,3.0,14.0,65,0.00,,,-99.99,801,WeatherLink 5.4,2013-06-21 19:32:00,
2013-06-21 15:38:00,85.2,72.1,29.89,East,90,3.0,14.0,65,0.00,,,-99.99,801,WeatherLink 5.4,2013-06-21 19:38:00,
2013-06-21 15:44:00,84.9,70.4,29.89,East,90,3.0,13.0,62,0.00,,,-99.99,693,WeatherLink 5.4,2013-06-21 19:44:00,
2013-06-21 15:49:00,84.9,70.4,29.89,East,90,3.0,13.0,62,0.00,,,-99.99,693,WeatherLink 5.4,2013-06-21 19:49:00,
2013-06-21 15:55:00,85.0,71.5,29.88,East,90,3.0,14.0,64,0.00,,,-99.99,653,WeatherLink 5.4,2013-06-21 19:55:00,
2013-06-21 16:01:00,84.9,70.9,29.88,East,90,3.0,12.0,63,0.00,,,-99.99,419,WeatherLink 5.4,2013-06-21 20:01:00,
2013-06-21 16:07:00,84.9,70.9,29.88,East,90,3.0,12.0,63,0.00,,,-99.99,419,WeatherLink 5.4,2013-06-21 20:07:00,
2013-06-21 16:10:00,84.5,71.0,29.88,East,90,4.0,14.0,64,0.00,,,-99.99,472,WeatherLink 5.4,2013-06-21 20:10:00,
2013-06-21 16:16:00,84.5,71.0,29.88,East,90,4.0,14.0,64,0.00,,,-99.99,472,WeatherLink 5.4,2013-06-21 20:16:00,
2013-06-21 16:20:00,84.1,69.7,29.88,East,90,2.0,12.0,62,0.00,,,-99.99,329,WeatherLink 5.4,2013-06-21 20:20:00,
2013-06-21 16:21:00,84.1,69.7,29.88,East,90,2.0,12.0,62,0.00,,,-99.99,329,WeatherLink 5.4,2013-06-21 20:21:00,
2013-06-21 16:26:00,84.1,69.7,29.88,East,90,2.0,12.0,62,0.00,,,-99.99,329,WeatherLink 5.4,2013-06-21 20:26:00,
2013-06-21 16:32:00,83.8,69.4,29.89,ENE,67,2.0,12.0,62,0.00,,,-99.99,247,WeatherLink 5.4,2013-06-21 20:32:00,
2013-06-21 16:38:00,83.8,69.4,29.89,ENE,67,2.0,12.0,62,0.00,,,-99.99,247,WeatherLink 5.4,2013-06-21 20:38:00,
2013-06-21 16:40:00,83.5,69.6,29.89,East,90,1.0,8.0,63,0.00,,,-99.99,244,WeatherLink 5.4,2013-06-21 20:40:00,
2013-06-21 16:43:00,83.5,69.6,29.89,East,90,1.0,8.0,63,0.00,,,-99.99,244,WeatherLink 5.4,2013-06-21 20:43:00,
2013-06-21 16:52:00,83.5,70.5,29.89,East,90,1.0,8.0,65,0.00,,,-99.99,186,WeatherLink 5.4,2013-06-21 20:52:00,
2013-06-21 16:58:00,83.5,70.5,29.89,East,90,1.0,8.0,65,0.00,,,-99.99,186,WeatherLink 5.4,2013-06-21 20:58:00,
2013-06-21 17:00:00,83.2,71.5,29.89,ENE,67,2.0,11.0,68,0.00,,,-99.99,315,WeatherLink 5.4,2013-06-21 21:00:00,
2013-06-21 17:05:00,83.2,71.5,29.89,ENE,67,2.0,11.0,68,0.00,,,-99.99,315,WeatherLink 5.4,2013-06-21 21:05:00,
2013-06-21 17:12:00,83.2,71.5,29.89,East,90,3.0,11.0,68,0.00,,,-99.99,313,WeatherLink 5.4,2013-06-21 21:12:00,
2013-06-21 17:18:00,83.2,71.5,29.89,East,90,3.0,11.0,68,0.00,,,-99.99,313,WeatherLink 5.4,2013-06-21 21:18:00,
2013-06-21 17:24:00,83.0,71.8,29.89,East,90,1.0,10.0,69,0.00,,,-99.99,164,WeatherLink 5.4,2013-06-21 21:24:00,
2013-06-21 17:26:00,83.0,71.8,29.89,East,90,1.0,10.0,69,0.00,,,-99.99,164,WeatherLink 5.4,2013-06-21 21:26:00,
2013-06-21 17:30:00,82.7,70.2,29.89,ENE,67,1.0,12.0,66,0.00,,,-99.99,157,WeatherLink 5.4,2013-06-21 21:30:00,
2013-06-21 17:32:00,82.7,70.2,29.89,ENE,67,1.0,12.0,66,0.00,,,-99.99,157,WeatherLink 5.4,2013-06-21 21:32:00,
2013-06-21 17:37:00,82.7,70.2,29.89,ENE,67,1.0,12.0,66,0.00,,,-99.99,157,WeatherLink 5.4,2013-06-21 21:37:00,
2013-06-21 17:40:00,82.6,70.1,29.89,East,90,2.0,13.0,66,0.00,,,-99.99,202,WeatherLink 5.4,2013-06-21 21:40:00,
2013-06-21 17:43:00,82.6,70.1,29.89,East,90,2.0,13.0,66,0.00,,,-99.99,202,WeatherLink 5.4,2013-06-21 21:43:00,
2013-06-21 17:51:00,82.5,70.4,29.89,East,90,3.0,14.0,67,0.00,,,-99.99,157,WeatherLink 5.4,2013-06-21 21:51:00,
2013-06-21 17:56:00,82.5,70.4,29.89,East,90,3.0,14.0,67,0.00,,,-99.99,157,WeatherLink 5.4,2013-06-21 21:56:00,
2013-06-21 18:00:00,82.4,71.2,29.89,ENE,67,1.0,8.0,69,0.00,,,-99.99,101,WeatherLink 5.4,2013-06-21 22:00:00,
2013-06-21 18:01:00,82.4,71.2,29.89,ENE,67,1.0,8.0,69,0.00,,,-99.99,101,WeatherLink 5.4,2013-06-21 22:01:00,
2013-06-21 18:08:00,82.4,71.2,29.89,ENE,67,1.0,8.0,69,0.00,,,-99.99,101,WeatherLink 5.4,2013-06-21 22:08:00,
2013-06-21 18:10:00,82.2,71.4,29.89,NE,45,1.0,8.0,70,0.00,,,-99.99,71,WeatherLink 5.4,2013-06-21 22:10:00,
2013-06-21 18:20:00,82.1,70.9,29.90,ENE,67,0.0,6.0,69,0.00,,,-99.99,61,WeatherLink 5.4,2013-06-21 22:20:00,
2013-06-21 18:32:00,81.6,70.4,29.90,NE,45,1.0,5.0,69,0.00,,,-99.99,48,WeatherLink 5.4,2013-06-21 22:32:00,
2013-06-21 18:37:00,81.6,70.4,29.90,NE,45,1.0,5.0,69,0.00,,,-99.99,48,WeatherLink 5.4,2013-06-21 22:37:00,
2013-06-21 18:42:00,81.3,70.2,29.90,ENE,67,2.0,10.0,69,0.00,,,-99.99,32,WeatherLink 5.4,2013-06-21 22:42:00,
2013-06-21 18:48:00,81.3,70.2,29.90,ENE,67,2.0,10.0,69,0.00,,,-99.99,32,WeatherLink 5.4,2013-06-21 22:48:00,
2013-06-21 18:53:00,81.2,70.1,29.91,East,90,1.0,7.0,69,0.00,,,-99.99,23,WeatherLink 5.4,2013-06-21 22:53:00,
2013-06-21 18:59:00,81.2,70.1,29.91,East,90,1.0,7.0,69,0.00,,,-99.99,23,WeatherLink 5.4,2013-06-21 22:59:00,
2013-06-21 19:04:00,81.1,70.4,29.91,East,90,1.0,9.0,70,0.00,,,-99.99,16,WeatherLink 5.4,2013-06-21 23:04:00,
2013-06-21 19:10:00,81.1,70.8,29.91,East,90,0.0,7.0,71,0.00,,,-99.99,9,WeatherLink 5.4,2013-06-21 23:10:00,
2013-06-21 19:16:00,81.1,70.8,29.91,East,90,0.0,7.0,71,0.00,,,-99.99,9,WeatherLink 5.4,2013-06-21 23:16:00,
2013-06-21 19:22:00,80.7,70.0,29.91,East,90,3.0,11.0,70,0.00,,,-99.99,0,WeatherLink 5.4,2013-06-21 23:22:00,
2013-06-21 19:27:00,80.7,70.0,29.91,East,90,3.0,11.0,70,0.00,,,-99.99,0,WeatherLink 5.4,2013-06-21 23:27:00,
2013-06-21 19:33:00,80.7,70.0,29.91,ENE,67,1.0,7.0,70,0.00,,,-99.99,0,WeatherLink 5.4,2013-06-21 23:33:00,
2013-06-21 19:39:00,80.7,70.0,29.91,ENE,67,1.0,7.0,70,0.00,,,-99.99,0,WeatherLink 5.4,2013-06-21 23:39:00,
2013-06-21 19:44:00,80.7,70.4,29.91,East,90,0.0,5.0,71,0.00,,,-99.99,0,WeatherLink 5.4,2013-06-21 23:44:00,
2013-06-21 19:50:00,80.7,70.8,29.92,North,-999,0.0,0.0,72,0.00,,,-99.99,0,WeatherLink 5.4,2013-06-21 23:50:00,
2013-06-21 19:55:00,80.7,70.8,29.92,North,-999,0.0,0.0,72,0.00,,,-99.99,0,WeatherLink 5.4,2013-06-21 23:55:00,
2013-06-21 20:01:00,80.7,70.4,29.92,East,90,1.0,10.0,71,0.00,,,-99.99,0,WeatherLink 5.4,2013-06-22 00:01:00,
2013-06-21 20:06:00,80.7,70.4,29.92,East,90,1.0,10.0,71,0.00,,,-99.99,0,WeatherLink 5.4,2013-06-22 00:06:00,
2013-06-21 20:10:00,80.5,70.2,29.92,East,90,2.0,10.0,71,0.00,,,-99.99,0,WeatherLink 5.4,2013-06-22 00:10:00,
2013-06-21 20:11:00,80.5,70.2,29.92,East,90,2.0,10.0,71,0.00,,,-99.99,0,WeatherLink 5.4,2013-06-22 00:11:00,
2013-06-21 20:17:00,80.5,70.2,29.92,East,90,2.0,10.0,71,0.00,,,-99.99,0,WeatherLink 5.4,2013-06-22 00:17:00,
2013-06-21 20:22:00,80.5,70.6,29.92,ENE,67,2.0,8.0,72,0.00,,,-99.99,0,WeatherLink 5.4,2013-06-22 00:22:00,
2013-06-21 20:27:00,80.5,70.6,29.92,ENE,67,2.0,8.0,72,0.00,,,-99.99,0,WeatherLink 5.4,2013-06-22 00:27:00,
2013-06-21 20:32:00,80.4,70.5,29.92,ENE,67,1.0,8.0,72,0.00,,,-99.99,0,WeatherLink 5.4,2013-06-22 00:32:00,
2013-06-21 20:38:00,80.4,70.5,29.92,ENE,67,1.0,8.0,72,0.00,,,-99.99,0,WeatherLink 5.4,2013-06-22 00:38:00,
2013-06-21 20:44:00,80.5,71.0,29.92,ENE,67,0.0,6.0,73,0.00,,,-99.99,0,WeatherLink 5.4,2013-06-22 00:44:00,
2013-06-21 20:50:00,80.3,70.9,29.93,ENE,67,1.0,6.0,73,0.00,,,-99.99,0,WeatherLink 5.4,2013-06-22 00:50:00,
2013-06-21 20:55:00,80.3,70.9,29.93,ENE,67,1.0,6.0,73,0.00,,,-99.99,0,WeatherLink 5.4,2013-06-22 00:55:00,
2013-06-21 21:00:00,80.3,71.6,29.93,East,90,0.0,5.0,75,0.00,,,-99.99,0,WeatherLink 5.4,2013-06-22 01:00:00,
2013-06-21 21:06:00,80.3,71.6,29.93,East,90,0.0,5.0,75,0.00,,,-99.99,0,WeatherLink 5.4,2013-06-22 01:06:00,
2013-06-21 21:12:00,80.3,72.0,29.93,ENE,67,0.0,6.0,76,0.00,,,-99.99,0,WeatherLink 5.4,2013-06-22 01:12:00,
2013-06-21 21:18:00,80.3,72.0,29.93,ENE,67,0.0,6.0,76,0.00,,,-99.99,0,WeatherLink 5.4,2013-06-22 01:18:00,
2013-06-21 21:23:00,79.9,71.7,29.93,East,90,2.0,7.0,76,0.00,,,-99.99,0,WeatherLink 5.4,2013-06-22 01:23:00,
2013-06-21 21:29:00,79.9,71.7,29.93,East,90,2.0,7.0,76,0.00,,,-99.99,0,WeatherLink 5.4,2013-06-22 01:29:00,
2013-06-21 21:34:00,79.8,71.6,29.93,East,90,1.0,7.0,76,0.00,,,-99.99,0,WeatherLink 5.4,2013-06-22 01:34:00,
2013-06-21 21:39:00,79.8,71.6,29.93,East,90,1.0,7.0,76,0.00,,,-99.99,0,WeatherLink 5.4,2013-06-22 01:39:00,
2013-06-21 21:45:00,79.8,71.6,29.93,East,90,0.0,7.0,76,0.00,,,-99.99,0,WeatherLink 5.4,2013-06-22 01:45:00,
2013-06-21 21:51:00,79.9,71.3,29.93,ENE,67,1.0,9.0,75,0.00,,,-99.99,0,WeatherLink 5.4,2013-06-22 01:51:00,
2013-06-21 21:57:00,79.9,71.3,29.93,ENE,67,1.0,9.0,75,0.00,,,-99.99,0,WeatherLink 5.4,2013-06-22 01:57:00,
2013-06-21 22:02:00,79.9,71.3,29.94,East,90,1.0,8.0,75,0.00,,,-99.99,0,WeatherLink 5.4,2013-06-22 02:02:00,
2013-06-21 22:07:00,79.9,71.3,29.94,East,90,1.0,8.0,75,0.00,,,-99.99,0,WeatherLink 5.4,2013-06-22 02:07:00,
2013-06-21 22:12:00,79.9,71.3,29.94,NNE,22,0.0,6.0,75,0.00,,,-99.99,0,WeatherLink 5.4,2013-06-22 02:12:00,
2013-06-21 22:17:00,79.9,71.3,29.94,NNE,22,0.0,6.0,75,0.00,,,-99.99,0,WeatherLink 5.4,2013-06-22 02:17:00,
2013-06-21 22:23:00,79.9,71.3,29.94,ENE,67,0.0,7.0,75,0.00,,,-99.99,0,WeatherLink 5.4,2013-06-22 02:23:00,
2013-06-21 22:29:00,79.9,71.3,29.94,ENE,67,0.0,7.0,75,0.00,,,-99.99,0,WeatherLink 5.4,2013-06-22 02:29:00,
2013-06-21 22:34:00,79.8,71.2,29.94,ENE,67,1.0,9.0,75,0.00,,,-99.99,0,WeatherLink 5.4,2013-06-22 02:34:00,
2013-06-21 22:40:00,79.8,70.8,29.94,ENE,67,1.0,10.0,74,0.00,,,-99.99,0,WeatherLink 5.4,2013-06-22 02:40:00,
2013-06-21 22:46:00,79.8,70.8,29.94,ENE,67,1.0,10.0,74,0.00,,,-99.99,0,WeatherLink 5.4,2013-06-22 02:46:00,
2013-06-21 22:52:00,79.8,71.2,29.94,East,90,0.0,3.0,75,0.00,,,-99.99,0,WeatherLink 5.4,2013-06-22 02:52:00,
2013-06-21 22:57:00,79.8,71.2,29.94,East,90,0.0,3.0,75,0.00,,,-99.99,0,WeatherLink 5.4,2013-06-22 02:57:00,
2013-06-21 23:02:00,79.8,71.2,29.94,East,90,2.0,13.0,75,0.00,,,-99.99,0,WeatherLink 5.4,2013-06-22 03:02:00,
2013-06-21 23:08:00,79.8,71.2,29.94,East,90,2.0,13.0,75,0.00,,,-99.99,0,WeatherLink 5.4,2013-06-22 03:08:00,
2013-06-21 23:14:00,79.6,71.0,29.94,ENE,67,0.0,8.0,75,0.00,,,-99.99,0,WeatherLink 5.4,2013-06-22 03:14:00,
2013-06-21 23:19:00,79.6,71.0,29.94,ENE,67,0.0,8.0,75,0.00,,,-99.99,0,WeatherLink 5.4,2013-06-22 03:19:00,
2013-06-21 23:25:00,79.6,71.0,29.94,East,90,0.0,6.0,75,0.00,,,-99.99,0,WeatherLink 5.4,2013-06-22 03:25:00,
2013-06-21 23:31:00,79.6,71.4,29.94,East,90,1.0,11.0,76,0.00,,,-99.99,0,WeatherLink 5.4,2013-06-22 03:31:00,
2013-06-21 23:37:00,79.6,71.4,29.94,East,90,1.0,11.0,76,0.00,,,-99.99,0,WeatherLink 5.4,2013-06-22 03:37:00,
2013-06-21 23:42:00,79.6,71.4,29.94,ENE,67,1.0,8.0,76,0.00,,,-99.99,0,WeatherLink 5.4,2013-06-22 03:42:00,
2013-06-21 23:47:00,79.6,71.4,29.94,ENE,67,1.0,8.0,76,0.00,,,-99.99,0,WeatherLink 5.4,2013-06-22 03:47:00,
2013-06-21 23:52:00,79.6,71.8,29.94,ENE,67,1.0,6.0,77,0.00,,,-99.99,0,WeatherLink 5.4,2013-06-22 03:52:00,
2013-06-21 23:58:00,79.6,71.8,29.94,ENE,67,1.0,6.0,77,0.00,,,-99.99,0,WeatherLink 5.4,2013-06-22 03:58:00,